{"data":{"norad_id":37781,"intl_designator":"2011-043A","name":"HAIYANG-2A","alt_names":[],"object_type":"PAYLOAD","status":"ACTIVE","operator":null,"country":"PRC","launch_date":"2011-08-15","launch_site_code":"TAISC","launch_vehicle":null,"mission":null,"orbit_class":"UNKNOWN","rcs_meters":4.629,"size_class":null,"mass_kg":null,"dimensions":null,"purposes":["earth_obs"],"wikipedia_slug":null,"has_3d_model":false,"image_url":null,"decayed_at":null,"tle_current":{"epoch":"2026-05-25T04:24:11.382912Z","epoch_age_seconds":56297,"freshness":"FRESH","line1":"1 37781U 11043A   26145.18346508  .00000229  00000+0  28585-3 0  9991","line2":"2 37781  99.3404 148.3610 0006889 132.2360 227.9375 13.74975927743494","mean_motion":13.74975927,"eccentricity":0.0006889,"inclination_deg":99.3404,"raan_deg":148.361,"arg_perigee_deg":132.236,"mean_anomaly_deg":227.9375,"bstar":0.00028585,"rev_number":74349,"period_min":104.72910628638,"perigee_km":976.69047321597,"apogee_km":986.83094027633,"semimajor_km":7359.8977067462,"source":"CELESTRAK","updated_at":"2026-05-25T13:38:12.779070Z"}}}